Savanna, IA

8:53 PM CST on November 11, 2019 (GMT -0600)
Tri-Township

Weather History for KSFY - October, 2019

Change the Weather History Date:

Monday, October 21, 2019

  Actual Average (WUND) Record (WUND)
Temperature  
Mean Temperature 56 °F -  
Max Temperature 62 °F - - (-1)
Min Temperature 46 °F - - (-1)
Degree Days  
Heating Degree Days 9    
Growing Degree Days 6 (Base 50)    
Moisture  
Dew Point 47 °F    
Average Humidity 77    
Maximum Humidity 100    
Minimum Humidity 51    
Precipitation  
Precipitation 0.18 in - - ()
Sea Level Pressure  
Sea Level Pressure 29.48 in    
Wind  
Wind Speed 15 mph (South)    
Max Wind Speed 26 mph    
Max Gust Speed 37 mph    
Visibility 9 miles    
Events Rain , Thunderstorm    
Averages and records for this station are not official NWS values.
T = Trace of Precipitation, MM = Missing Value Source: NWS Daily Summary

Daily Weather History Graph

Daily Weather History Graph

Search for Another Location

Airport or City:

Astronomy

Oct. 21, 2019 Rise Set
Actual Time 7:19 AM CDT 6:09 PM CDT
Civil Twilight 6:51 AM CDT 6:38 PM CDT
Nautical Twilight 6:18 AM CDT 7:10 PM CDT
Astronomical Twilight 5:46 AM CDT 7:43 PM CDT
Moon No Moon Rise 2:41 PM CDT (10/21)
Length of Visible Light 11h 46m
Length of Day
10h 50m
Waning Gibbous, 48% of the Moon is Illuminated
Oct 21
Waning Gibbous
Oct 27
New
Nov 4
First Quarter
Nov 12
Full
Nov 19
Last Quarter

Hourly Weather History & Observations

Time (CDT) Temp. Windchill Dew Point Humidity Pressure Visibility Wind Dir Wind Speed Gust Speed Precip Events Conditions
12:15 AM 51.8 °F - 46.4 °F 82% 29.79 in 10.0 mi East 8.1 mph - N/A   Overcast
12:35 AM 51.8 °F - 48.2 °F 88% 29.78 in 7.0 mi East 5.8 mph - N/A   Overcast
12:55 AM 51.8 °F - 48.2 °F 88% 29.76 in 7.0 mi East 6.9 mph - N/A   Overcast
1:15 AM 51.8 °F - 48.2 °F 88% 29.77 in 7.0 mi ESE 5.8 mph - N/A   Overcast
1:35 AM 53.6 °F - 50.0 °F 88% 29.75 in 7.0 mi ESE 9.2 mph - N/A   Overcast
1:55 AM 53.6 °F - 50.0 °F 88% 29.72 in 7.0 mi ESE 16.1 mph 20.7 mph N/A   Overcast
2:15 AM 53.6 °F - 50.0 °F 88% 29.73 in 7.0 mi ESE 15.0 mph 19.6 mph N/A   Overcast
2:35 AM 53.6 °F - 50.0 °F 88% 29.72 in 7.0 mi ESE 18.4 mph 23.0 mph N/A   Overcast
2:55 AM 53.6 °F - 50.0 °F 88% 29.70 in 7.0 mi ESE 18.4 mph 21.9 mph N/A   Overcast
3:15 AM 51.8 °F - 50.0 °F 94% 29.68 in 5.0 mi East 16.1 mph 21.9 mph N/A   Mostly Cloudy
3:35 AM 53.6 °F - 50.0 °F 88% 29.66 in 7.0 mi East 15.0 mph 23.0 mph N/A   Mostly Cloudy
3:55 AM 53.6 °F - 50.0 °F 88% 29.64 in 7.0 mi East 13.8 mph 24.2 mph N/A   Scattered Clouds
4:15 AM 53.6 °F - 50.0 °F 88% 29.62 in 7.0 mi East 13.8 mph 24.2 mph N/A   Scattered Clouds
4:35 AM 53.6 °F - 50.0 °F 88% 29.60 in 7.0 mi East 16.1 mph 24.2 mph N/A   Mostly Cloudy
4:55 AM 53.6 °F - 50.0 °F 88% 29.59 in 7.0 mi ESE 18.4 mph 25.3 mph N/A   Mostly Cloudy
5:15 AM 53.6 °F - 50.0 °F 88% 29.57 in 10.0 mi ESE 19.6 mph 23.0 mph N/A   Mostly Cloudy
5:35 AM 55.4 °F - 50.0 °F 82% 29.55 in 10.0 mi ESE 19.6 mph 24.2 mph N/A Thunderstorm Overcast
5:55 AM 55.4 °F - 50.0 °F 82% 29.53 in 10.0 mi ESE 20.7 mph 24.2 mph N/A   Mostly Cloudy
6:15 AM 55.4 °F - 50.0 °F 82% 29.51 in 10.0 mi ESE 16.1 mph 25.3 mph N/A Thunderstorm Overcast
6:35 AM 55.4 °F - 50.0 °F 82% 29.50 in 10.0 mi SE 16.1 mph 23.0 mph N/A Rain , Thunderstorm Rain
6:55 AM 53.6 °F - 51.8 °F 94% 29.48 in 10.0 mi ESE 15.0 mph 21.9 mph 0.05 in Rain , Thunderstorm Light Thunderstorms and Rain
7:15 AM 55.4 °F - 53.6 °F 94% 29.45 in 10.0 mi ESE 17.3 mph 23.0 mph N/A Rain , Thunderstorm Light Thunderstorms and Rain
7:35 AM 55.4 °F - 53.6 °F 94% 29.40 in 4.0 mi ESE 21.9 mph 32.2 mph 0.04 in Rain , Thunderstorm Thunderstorms and Rain
7:55 AM 55.4 °F - 53.6 °F 94% 29.39 in 10.0 mi ESE 18.4 mph 26.5 mph 0.05 in   Overcast
8:15 AM 55.4 °F - 53.6 °F 94% 29.39 in 10.0 mi ESE 16.1 mph 25.3 mph N/A Rain Light Rain
8:35 AM 55.4 °F - 53.6 °F 94% 29.38 in 10.0 mi SE 17.3 mph 23.0 mph N/A   Overcast
8:55 AM 57.2 °F - 55.4 °F 94% 29.37 in 10.0 mi SE 19.6 mph 25.3 mph N/A   Overcast
9:15 AM 57.2 °F - 55.4 °F 94% 29.36 in 10.0 mi SE 18.4 mph 26.5 mph N/A   Overcast
9:35 AM 57.2 °F - 55.4 °F 94% 29.34 in 3.0 mi SE 16.1 mph 25.3 mph 0.02 in Rain Light Rain
9:55 AM 57.2 °F - 55.4 °F 94% 29.33 in 3.0 mi SSE 18.4 mph 25.3 mph 0.04 in Rain Rain
10:15 AM 57.2 °F - 57.2 °F 100% 29.33 in 5.0 mi SSE 18.4 mph 24.2 mph 0.02 in Rain Light Rain
10:35 AM 59.0 °F - 57.2 °F 94% 29.32 in 5.0 mi SSE 18.4 mph 23.0 mph 0.03 in Rain Light Rain
10:55 AM 59.0 °F - 59.0 °F 100% 29.33 in 10.0 mi South 18.4 mph 23.0 mph 0.03 in   Overcast
11:15 AM 59.0 °F - 57.2 °F 94% 29.33 in 10.0 mi SSW 16.1 mph 21.9 mph N/A   Overcast
11:35 AM 59.0 °F - 57.2 °F 94% 29.34 in 10.0 mi SSW 12.7 mph 21.9 mph N/A   Overcast
11:55 AM 60.8 °F - 57.2 °F 88% 29.33 in 10.0 mi SSW 18.4 mph 24.2 mph N/A   Overcast
12:15 PM 62.6 °F - 55.4 °F 77% 29.33 in 10.0 mi SSW 25.3 mph 31.1 mph N/A   Overcast
12:35 PM 62.6 °F - 53.6 °F 72% 29.33 in 10.0 mi SSW 21.9 mph 28.8 mph N/A   Overcast
12:55 PM 62.6 °F - 53.6 °F 72% 29.34 in 10.0 mi SSW 17.3 mph 25.3 mph N/A   Mostly Cloudy
1:15 PM 62.6 °F - 50.0 °F 63% 29.34 in 10.0 mi SSW 17.3 mph 26.5 mph N/A   Mostly Cloudy
1:35 PM 60.8 °F - 46.4 °F 59% 29.34 in 10.0 mi SW 16.1 mph 28.8 mph N/A   Mostly Cloudy
1:55 PM 60.8 °F - 44.6 °F 55% 29.35 in 10.0 mi SSW 20.7 mph 29.9 mph N/A   Overcast
2:15 PM 62.6 °F - 44.6 °F 52% 29.35 in 10.0 mi SW 21.9 mph 29.9 mph N/A   Mostly Cloudy
2:35 PM 60.8 °F - 42.8 °F 52% 29.35 in 10.0 mi SSW 19.6 mph 29.9 mph N/A   Scattered Clouds
3:15 PM 59.0 °F - 42.8 °F 55% 29.38 in 10.0 mi SSW 19.6 mph 29.9 mph N/A   Mostly Cloudy
3:35 PM 59.0 °F - 41.0 °F 51% 29.39 in 10.0 mi SW 20.7 mph 29.9 mph N/A   Overcast
3:55 PM 59.0 °F - 41.0 °F 51% 29.40 in 10.0 mi SW 18.4 mph 29.9 mph N/A   Mostly Cloudy
4:15 PM 57.2 °F - 41.0 °F 55% 29.41 in 10.0 mi SSW 18.4 mph 27.6 mph N/A   Overcast
4:35 PM 55.4 °F - 41.0 °F 58% 29.42 in 10.0 mi SW 18.4 mph 27.6 mph N/A   Overcast
4:55 PM 55.4 °F - 41.0 °F 58% 29.43 in 10.0 mi SW 21.9 mph 28.8 mph N/A   Overcast
5:15 PM 53.6 °F - 39.2 °F 58% 29.44 in 10.0 mi SW 24.2 mph 34.5 mph N/A   Overcast
5:35 PM 53.6 °F - 37.4 °F 54% 29.46 in 10.0 mi SW 20.7 mph 29.9 mph N/A   Overcast
5:55 PM 51.8 °F - 37.4 °F 58% 29.47 in 10.0 mi SW 18.4 mph 31.1 mph N/A   Overcast
6:15 PM 51.8 °F - 37.4 °F 58% 29.47 in 10.0 mi SSW 18.4 mph 28.8 mph N/A   Overcast
6:35 PM 51.8 °F - 37.4 °F 58% 29.48 in 10.0 mi SSW 13.8 mph 25.3 mph N/A   Overcast
6:55 PM 51.8 °F - 39.2 °F 62% 29.48 in 10.0 mi SSW 15.0 mph 21.9 mph N/A   Overcast
7:15 PM 51.8 °F - 39.2 °F 62% 29.49 in 10.0 mi SSW 16.1 mph 24.2 mph N/A   Overcast
7:35 PM 51.8 °F - 39.2 °F 62% 29.49 in 10.0 mi SW 11.5 mph 23.0 mph N/A   Overcast
7:55 PM 51.8 °F - 39.2 °F 62% 29.49 in 10.0 mi SW 15.0 mph 21.9 mph N/A   Overcast
8:15 PM 51.8 °F - 39.2 °F 62% 29.48 in 10.0 mi SSW 17.3 mph 25.3 mph N/A   Overcast
8:35 PM 50.0 °F - 41.0 °F 71% 29.48 in 10.0 mi SW 16.1 mph 24.2 mph N/A Rain Rain
8:55 PM 51.8 °F - 41.0 °F 67% 29.48 in 10.0 mi SSW 17.3 mph 23.0 mph N/A   Overcast
9:15 PM 51.8 °F - 41.0 °F 67% 29.47 in 10.0 mi SSW 18.4 mph 28.8 mph N/A   Overcast
9:35 PM 51.8 °F - 41.0 °F 67% 29.47 in 10.0 mi SSW 18.4 mph 27.6 mph N/A   Overcast
9:55 PM 51.8 °F - 41.0 °F 67% 29.46 in 10.0 mi SSW 19.6 mph 28.8 mph N/A   Overcast
10:15 PM 51.8 °F - 41.0 °F 67% 29.46 in 10.0 mi SSW 20.7 mph 26.5 mph N/A   Overcast
10:35 PM 51.8 °F - 41.0 °F 67% 29.45 in 10.0 mi SSW 19.6 mph 29.9 mph N/A   Overcast
10:55 PM 51.8 °F - 42.8 °F 71% 29.45 in 10.0 mi SSW 24.2 mph 32.2 mph N/A   Overcast
11:15 PM 51.8 °F - 42.8 °F 71% 29.43 in 10.0 mi SSW 20.7 mph 29.9 mph N/A   Overcast
11:35 PM 51.8 °F - 42.8 °F 71% 29.43 in 10.0 mi SSW 26.5 mph 32.2 mph N/A   Overcast
11:55 PM 46.4 °F 38.3 °F 44.6 °F 93% 29.44 in 5.0 mi SW 23.0 mph 36.8 mph 0.01 in Rain Heavy Rain